This demonstration page uses our WeatherBlox Daily Observations layout. Learn more.

Left ArrowRight Arrow

41.86663, -103.66717

Hourly Observations for March 3, 2020

Temp ( °F °C ) Dew Point ( °F °C ) Humidity (%) Winds ( mph kmh ) Pressure ( in mb ) Visibility ( mi km ) Precip ( " mm )
12:53 am 00:53 Clear 26 -3.3 16 -8.9 66 66 N N/A 29.88 1012 10 16 N/A
1:53 am 01:53 Clear 24 -4.4 16 -8.9 71 71 N N/A 29.89 1012 10 16 N/A
2:53 am 02:53 Clear 24 -4.4 15 -9.4 68 68 W 7 11 29.88 1012 10 16 N/A
3:53 am 03:53 Clear 27 -2.8 17 -8.3 66 66 W 7 11 29.88 1012 10 16 N/A
4:53 am 04:53 Clear 26 -3.3 16 -8.9 66 66 NW 7 11 29.87 1012 10 16 N/A
5:53 am 05:53 Clear 22 -5.6 14 -10 71 71 N N/A 29.89 1012 10 16 N/A
6:53 am 06:53 Sunny 23 -5 16 -8.9 74 74 N 6 9 29.88 1012 10 16 N/A
7:53 am 07:53 Sunny 33 0.6 20 -6.7 58 58 NNW 6 9 29.86 1011 10 16 N/A
8:53 am 08:53 Sunny 44 6.7 20 -6.7 38 38 W 28 44 29.82 1010 10 16 N/A
9:53 am 09:53 Sunny 48 8.9 20 -6.7 33 33 W 24 39 29.80 1009 10 16 N/A
10:53 am 10:53 Sunny 51 10.6 20 -6.7 29 29 WNW 29 46 29.78 1008 10 16 N/A
11:53 am 11:53 Mostly Sunny 55 12.8 22 -5.6 28 28 WNW 26 43 29.75 1008 10 16 N/A
12:53 pm 12:53 Sunny 56 13.3 23 -5 28 28 WNW 32 52 29.74 1007 10 16 N/A
1:53 pm 13:53 Sunny 58 14.4 23 -5 26 26 WNW 28 44 29.74 1007 10 16 N/A
2:53 pm 14:53 Mostly Sunny 58 14.4 21 -6.1 24 24 WNW 29 46 29.78 1009 10 16 N/A
3:53 pm 15:53 Cloudy 56 13.3 21 -6.1 26 26 NW 28 44 29.81 1010 10 16 N/A
4:20 pm 16:20 Mostly Cloudy 48 9 30 -1 50 50 N 28 44 29.81 1010 10 16 N/A
4:53 pm 16:53 Sunny 45 7.2 32 undefined 61 61 N 28 44 29.93 1014 10 16 N/A
5:53 pm 17:53 Clear 42 5.6 29 -1.7 60 60 WNW 9 15 30.02 1017 10 16 N/A
6:53 pm 18:53 Clear 37 2.8 29 -1.7 73 73 WNW 6 9 30.05 1018 10 16 N/A
7:53 pm 19:53 Clear 32 undefined 27 -2.8 82 82 NW 6 9 30.06 1018 10 16 N/A
8:53 pm 20:53 Clear 26 -3.3 23 -5 88 88 NNE 5 7 30.05 1018 10 16 N/A
9:53 pm 21:53 Clear 27 -2.8 24 -4.4 89 89 E 3 6 30.05 1018 10 16 N/A
10:53 pm 22:53 Clear 24 -4.4 21 -6.1 88 88 ENE 5 7 30.06 1018 10 16 N/A
11:53 pm 23:53 Clear 24 -4.4 21 -6.1 88 88 ESE 7 11 30.04 1017 10 16 N/A

Powered by AerisWeather